Location: Middle Street
(51.7167°N, 0.0333°E)
Time: 19:55:52
(UTC+00:00)

Cosmos 1812 Rocket - Pass Details

Date: 20 January 2021
Orbit: 604 x 633 km, 82.5° (Epoch: 27 February)

Event Time Altitude Azimuth Distance (km) Brightness Sun altitude
Rises 18:41:36 0° 351° (N) 2,920 7.0 -20.2°
Reaches altitude 10° 18:43:53 10° 355° (N) 2,004 6.2 -20.5°
Maximum altitude 18:48:17 63° 77° (ENE) 694 3.4 -21.2°
Enters shadow 18:48:56 55° 120° (ESE) 746 3.6 -21.3°
